Flag for Congo Dem.Rep. Weather past 2 weeks in Kinshasa, Congo Dem.Rep.

Now
77 °F

Thunderstorms. Passing clouds.


Feels Like: 78 °F
Forecast: 75 / 92 °F
Wind: 1 mph from North

Location: Brazzaville / Maya-Maya

Current Time: May 4, 2015 at 12:01:39 AM

Latest Report: May 3, 2015 at 11:00 PM


Visibility: N/A

Pressure: 29.92 "Hg

Humidity: 89%

Dew point: 73 °F

Location of KinshasaLocation

Historic Weather in Kinshasa — Graph

°F

Kinshasa temperature yesterday

Maximum temperature yesterday: 88 °F (at 4:00 PM)
Minimum temperature yesterday: 75 °F (at 4:00 AM)
Average temperature yesterday: 80 °F

Past Weeks' High & Low Weather Summary

 TemperatureHumidityPressure
High95 °F (Apr 23, 3:00 PM)100% (Apr 24, 2:00 AM)30.04 "Hg (Apr 24, 2:00 AM)
Low72 °F (Apr 21, 12:00 AM)44% (May 2, 2:00 PM)29.74 "Hg (Apr 23, 4:00 PM)
Average80 °F78%29.90 "Hg
* Reported Apr 18 10:00 PM — May 3 10:00 PM, Kinshasa, Weather by CustomWeather, © 2015

Note: Actual official high and low records may vary slightly from our data, if they occured in-between our weather recording intervals... More about our weather records

Advertising

Kinshasa weather history for previous 24 hours

 ConditionsComfort  
Time TempWeatherWind HumidityBarometerVisibility
10:00 PM
Sun, May 3
79 °FThunderstorms. Passing clouds.3 mph79%29.92 "HgN/A
9:00 PM79 °FThunderstorms. Passing clouds.5 mph84%29.89 "HgN/A
8:00 PM81 °FThunderstorms. Passing clouds.3 mph89%29.89 "HgN/A
7:00 PM82 °FThunderstorms. Passing clouds.3 mph79%29.83 "HgN/A
6:00 PM84 °FPassing clouds.2 mph74%29.80 "HgN/A
5:00 PM86 °FPassing clouds.6 mph70%29.80 "HgN/A
4:00 PM88 °FPassing clouds.2 mph66%29.80 "HgN/A
3:00 PM86 °FPassing clouds.5 mph70%29.80 "HgN/A
2:00 PM86 °FScattered clouds.5 mph70%29.83 "HgN/A
1:00 PM84 °FPassing clouds.7 mph70%29.86 "Hg5 mi
12:00 PM82 °FPassing clouds.6 mph79%29.89 "Hg5 mi
11:00 AM81 °FPartly sunny.5 mph79%29.92 "Hg5 mi
10:00 AM81 °FPartly sunny.5 mph79%29.95 "Hg5 mi
9:00 AM81 °FPassing clouds.No wind79%29.95 "Hg5 mi
8:00 AM77 °FPassing clouds.5 mph89%29.92 "Hg5 mi
7:00 AM75 °FScattered clouds.2 mph94%29.89 "Hg5 mi
6:00 AM75 °FScattered clouds.3 mph94%29.86 "HgN/A
5:00 AM75 °FPassing clouds.7 mph94%29.83 "Hg5 mi
4:00 AM75 °FPassing clouds.No wind94%29.83 "Hg5 mi
3:00 AM77 °FPassing clouds.6 mph83%29.83 "Hg5 mi
2:00 AM79 °FPassing clouds.3 mph79%29.83 "Hg5 mi
1:00 AM79 °FPassing clouds.2 mph74%29.83 "Hg4 mi
12:00 AM79 °FPassing clouds.No wind84%29.86 "Hg4 mi
Weather by CustomWeather, © 2015

See weather overviewHow to use our weather pages